Погода в Колосе

Россия / Саратовская область     51°45′59″N   47°15′32″E
темп.,
°C
ветер,
м/с
пор.,
м/с
влажн.,
%
обл.,
%
осадки,
мм/ч
давл.,
гПа
погр.,
м
17 октября, вс
вс1701:00+7ююв1162100 0.0 102110
04:00+8вюв1160100 0.0 102010
07:00+8в2264100 0.0 102024
10:00+10в2457100 0.0 1019201
13:00+11вюв3566100 0.1 1018246
16:00+12вюв2366100 0.1 1017296
19:00+10юв248271 0.0 1017104
22:00+9юв2484100 0.1 1016135
18 октября, пн
пн1801:00+9сз1196100 1.8 101539
04:00+9ююв119385 1.8 101415
07:00+8в119352 0.0 101310
10:00+11всв1177100 0.0 1013202
13:00+11ю007592 0.1 1012185
16:00+14юз246273 0.1 1011738
19:00+10юз227560 0.0 101116
22:00+10сз4858100 0.0 1012279
19 октября, вт
вт1901:00+7зсз336678 0.0 101234
04:00+6зсз2364100 0.0 101245
07:00+6зсз2266100 0.0 101237
10:00+8зсз3460100 0.0 1012330
13:00+9сз4464100 0.0 10121143
16:00+8ссз2372100 0.3 1012844
19:00+6ююз2277100 0.1 101228
22:00+6ссз3563100 0.1 101288
20 октября, ср
ср2001:00+5ссз4958100 0.0 1012236
04:00+3сз487494 0.0 1013201
07:00+2сз498581 0.0 1014335
10:00+4ссз586798 0.0 1015732
13:00+6ссз6846100 0.1 10161824
16:00+6ссз7943100 0.1 10171830
19:00+3сз34555 0.0 102071
22:00+2сз5116420 0.0 1021349
21 октября, чт
чт2101:000зсз48805 0.0 1022170
04:000з35805 0.0 102387
07:00−1з35825 0.0 102391
10:00+3зюз4658100 0.0 1023405
13:00+6юз6838100 0.0 1021883
16:00+5юз71164100 0.0 1019735
19:00+6юз81670100 0.2 1017771
22:00+8юз81547100 0.3 1015653